| time (UTC) | temp C | wind direction | speed KPH | gust KPH | rain 1hr cm | rain 24hr cm | rain mn cm | humidity % | barometer mb |
| 20260507094543 | 3 | 360 | 0.0 | 0.0 | 0.00 | 0.00 | 0.00 | 80 | 1011.5 |
| 20260507093042 | 3 | 360 | 0.0 | 0.0 | 0.00 | 0.00 | 0.00 | 80 | 1011.4 |
| 20260507091540 | 3 | 360 | 0.0 | 0.0 | 0.00 | 0.00 | 0.00 | 78 | 1011.5 |
| 20260507090039 | 3 | 360 | 0.0 | 0.0 | 0.00 | 0.00 | 0.00 | 78 | 1011.7 |
| 20260507084541 | 4 | 360 | 0.0 | 0.0 | 0.00 | 0.00 | 0.00 | 76 | 1011.7 |
| 20260507083044 | 5 | 360 | 0.0 | 0.0 | 0.00 | 0.00 | 0.00 | 77 | 1011.7 |
| 20260507081530 | 5 | 360 | 0.0 | 0.0 | 0.00 | 0.00 | 0.00 | 74 | 1011.6 |
| 20260507080028 | 5 | 360 | 0.0 | 0.0 | 0.00 | 0.00 | 0.00 | 77 | 1011.6 |
| 20260507074527 | 5 | 360 | 0.0 | 0.0 | 0.00 | 0.00 | 0.00 | 78 | 1011.7 |
| 20260507073030 | 5 | 360 | 0.0 | 0.0 | 0.00 | 0.00 | 0.00 | 77 | 1011.6 |
| 20260507071525 | 6 | 360 | 0.0 | 0.0 | 0.00 | 0.00 | 0.00 | 75 | 1011.6 |
| 20260507070032 | 6 | 360 | 0.0 | 0.0 | 0.00 | 0.00 | 0.00 | 75 | 1011.6 |
| 20260507064533 | 6 | 360 | 0.0 | 0.0 | 0.00 | 0.00 | 0.00 | 71 | 1011.8 |
| 20260507063027 | 6 | 360 | 0.0 | 0.0 | 0.00 | 0.00 | 0.00 | 74 | 1011.8 |
| 20260507061519 | 6 | 360 | 0.0 | 0.0 | 0.00 | 0.00 | 0.00 | 69 | 1012.0 |
| 20260507060020 | 6 | 360 | 0.0 | 0.0 | 0.00 | 0.00 | 0.00 | 71 | 1012.0 |
| 20260507054516 | 6 | 360 | 0.0 | 0.0 | 0.00 | 0.00 | 0.00 | 71 | 1012.0 |
| 20260507053012 | 6 | 360 | 0.0 | 0.0 | 0.00 | 0.00 | 0.00 | 69 | 1012.1 |
| 20260507051510 | 7 | 360 | 0.0 | 0.0 | 0.00 | 0.00 | 0.00 | 69 | 1012.1 |
| 20260507050008 | 7 | 360 | 0.0 | 0.0 | 0.00 | 0.00 | 0.00 | 67 | 1012.1 |
| 20260507044506 | 7 | 360 | 0.0 | 0.0 | 0.00 | 0.00 | 0.00 | 62 | 1012.1 |
| 20260507043005 | 7 | 360 | 0.0 | 0.0 | 0.00 | 0.00 | 0.00 | 64 | 1012.2 |
| 20260507041513 | 7 | 360 | 0.0 | 0.0 | 0.00 | 0.00 | 0.00 | 64 | 1012.1 |
| 20260507040001 | 7 | 360 | 0.0 | 0.0 | 0.00 | 0.00 | 0.00 | 61 | 1012.1 |
| 20260507034501 | 8 | 360 | 0.0 | 0.0 | 0.00 | 0.00 | 0.00 | 66 | 1012.0 |
| 20260507033002 | 8 | 360 | 0.0 | 0.0 | 0.00 | 0.00 | 0.00 | 67 | 1012.1 |
| 20260507031601 | 8 | 360 | 0.0 | 0.0 | 0.00 | 0.00 | 0.00 | 65 | 1012.2 |
| 20260507030101 | 8 | 360 | 0.0 | 0.0 | 0.00 | 0.00 | 0.00 | 62 | 1012.2 |
| 20260507024625 | 8 | 360 | 0.0 | 0.0 | 0.00 | 0.00 | 0.00 | 62 | 1012.3 |
| 20260507023058 | 8 | 360 | 0.0 | 0.0 | 0.00 | 0.00 | 0.00 | 65 | 1012.3 |
| 20260507021559 | 8 | 360 | 0.0 | 0.0 | 0.00 | 0.00 | 0.00 | 64 | 1012.2 |
| 20260507020110 | 8 | 360 | 0.0 | 0.0 | 0.00 | 0.00 | 0.00 | 59 | 1012.1 |
| 20260507014606 | 9 | 360 | 0.0 | 0.0 | 0.00 | 0.00 | 0.00 | 56 | 1012.0 |
| 20260507013056 | 10 | 360 | 0.0 | 0.0 | 0.00 | 0.00 | 0.00 | 55 | 1011.9 |
| 20260507011556 | 10 | 360 | 0.0 | 0.0 | 0.00 | 0.00 | 0.00 | 48 | 1011.8 |
| 20260507010055 | 10 | 360 | 0.0 | 0.0 | 0.00 | 0.00 | 0.00 | 49 | 1011.8 |
| 20260507004555 | 10 | 360 | 0.0 | 0.0 | 0.00 | 0.00 | 0.00 | 48 | 1011.7 |
| 20260507003054 | 10 | 360 | 0.0 | 0.0 | 0.00 | 0.00 | 0.00 | 47 | 1011.8 |
| 20260507001557 | 10 | 360 | 0.0 | 6.4 | 0.00 | 0.00 | 0.00 | 45 | 1011.6 |
| 20260507000034 | 10 | 360 | 0.0 | 6.4 | 0.00 | 0.00 | 0.00 | 44 | 1011.5 |
| 20260506234600 | 11 | 360 | 3.2 | 9.7 | 0.00 | 0.00 | 0.00 | 43 | 1011.6 |
| 20260506233108 | 11 | 360 | 4.8 | 17.7 | 0.00 | 0.00 | 0.00 | 43 | 1011.6 |
| 20260506231524 | 11 | 360 | 4.8 | 9.7 | 0.00 | 0.00 | 0.00 | 41 | 1011.5 |
| 20260506230025 | 11 | 360 | 1.6 | 6.4 | 0.00 | 0.00 | 0.00 | 45 | 1011.3 |
| 20260506224540 | 11 | 360 | 3.2 | 8.0 | 0.00 | 0.00 | 0.00 | 44 | 1011.4 |
| 20260506223059 | 11 | 360 | 0.0 | 4.8 | 0.00 | 0.00 | 0.00 | 43 | 1011.3 |
| 20260506221612 | 11 | 360 | 3.2 | 8.0 | 0.00 | 0.00 | 0.00 | 43 | 1011.2 |
| 20260506220019 | 11 | 360 | 3.2 | 9.7 | 0.00 | 0.00 | 0.00 | 42 | 1011.2 |
| 20260506214533 | 12 | 360 | 4.8 | 9.7 | 0.00 | 0.00 | 0.00 | 41 | 1011.2 |
| 20260506213104 | 12 | 360 | 3.2 | 8.0 | 0.00 | 0.00 | 0.00 | 43 | 1011.0 |
| 20260506211633 | 12 | 360 | 1.6 | 8.0 | 0.00 | 0.00 | 0.00 | 42 | 1011.0 |
| 20260506210010 | 12 | 360 | 3.2 | 8.0 | 0.00 | 0.00 | 0.00 | 41 | 1010.9 |
| 20260506204531 | 12 | 360 | 1.6 | 9.7 | 0.00 | 0.00 | 0.00 | 42 | 1011.0 |
| 20260506203007 | 12 | 360 | 1.6 | 8.0 | 0.00 | 0.00 | 0.00 | 41 | 1011.1 |
| 20260506201505 | 12 | 360 | 6.4 | 14.5 | 0.00 | 0.00 | 0.00 | 42 | 1011.1 |
| 20260506200006 | 12 | 360 | 3.2 | 8.0 | 0.00 | 0.00 | 0.00 | 42 | 1011.3 |
| 20260506194504 | 12 | 360 | 3.2 | 8.0 | 0.00 | 0.00 | 0.00 | 43 | 1011.3 |
| 20260506193004 | 12 | 360 | 0.0 | 16.1 | 0.00 | 0.00 | 0.00 | 42 | 1011.4 |
| 20260506191503 | 12 | 360 | 6.4 | 12.9 | 0.00 | 0.00 | 0.00 | 43 | 1011.4 |
| 20260506190002 | 12 | 360 | 4.8 | 16.1 | 0.00 | 0.00 | 0.00 | 43 | 1011.6 |
| 20260506184501 | 11 | 360 | 6.4 | 17.7 | 0.00 | 0.00 | 0.00 | 44 | 1011.9 |
| 20260506181518 | 11 | 360 | 1.6 | 9.7 | 0.00 | 0.00 | 0.00 | 43 | 1011.4 |
| 20260506180044 | 12 | 47 | 0.0 | 12.9 | 0.00 | 0.00 | 0.00 | 42 | 1011.5 |
| 20260506174559 | 12 | 360 | 4.8 | 14.5 | 0.00 | 0.00 | 0.00 | 43 | 1011.6 |
| 20260506173109 | 11 | 360 | 1.6 | 14.5 | 0.00 | 0.00 | 0.00 | 43 | 1011.7 |
| 20260506171501 | 11 | 360 | 1.6 | 9.7 | 0.00 | 0.00 | 0.00 | 43 | 1011.9 |
| 20260506170020 | 11 | 360 | 4.8 | 12.9 | 0.00 | 0.00 | 0.00 | 46 | 1012.3 |
| 20260506164525 | 11 | 360 | 3.2 | 14.5 | 0.00 | 0.00 | 0.00 | 44 | 1012.1 |
| 20260506163035 | 11 | 360 | 3.2 | 8.0 | 0.00 | 0.00 | 0.00 | 45 | 1012.1 |
| 20260506161542 | 10 | 360 | 3.2 | 12.9 | 0.00 | 0.00 | 0.00 | 46 | 1012.1 |
| 20260506160143 | 10 | 360 | 6.4 | 14.5 | 0.00 | 0.00 | 0.00 | 45 | 1011.8 |
| 20260506154543 | 10 | 360 | 4.8 | 17.7 | 0.00 | 0.03 | 0.00 | 47 | 1012.1 |
| 20260506153040 | 10 | 44 | 4.8 | 12.9 | 0.00 | 0.03 | 0.00 | 46 | 1011.9 |
| 20260506151544 | 10 | 360 | 6.4 | 16.1 | 0.00 | 0.03 | 0.00 | 46 | 1011.8 |
| 20260506150038 | 10 | 49 | 4.8 | 17.7 | 0.00 | 0.03 | 0.00 | 45 | 1011.7 |
| 20260506144608 | 10 | 360 | 6.4 | 19.3 | 0.00 | 0.03 | 0.00 | 45 | 1011.5 |
| 20260506143110 | 10 | 360 | 4.8 | 14.5 | 0.00 | 0.03 | 0.00 | 49 | 1011.4 |
| 20260506141602 | 9 | 45 | 4.8 | 14.5 | 0.00 | 0.03 | 0.00 | 50 | 1011.1 |
| 20260506140112 | 8 | 46 | 4.8 | 12.9 | 0.00 | 0.03 | 0.00 | 53 | 1011.0 |
| 20260506134502 | 8 | 360 | 4.8 | 14.5 | 0.00 | 0.03 | 0.00 | 52 | 1010.8 |
| 20260506133021 | 8 | 360 | 1.6 | 9.7 | 0.00 | 0.03 | 0.00 | 57 | 1010.7 |
| 20260506131534 | 7 | 360 | 0.0 | 6.4 | 0.00 | 0.03 | 0.00 | 57 | 1010.8 |
| 20260506130041 | 7 | 360 | 1.6 | 12.9 | 0.00 | 0.03 | 0.00 | 59 | 1010.6 |
| 20260506124549 | 7 | 360 | 0.0 | 4.8 | 0.00 | 0.03 | 0.00 | 61 | 1010.5 |
| 20260506123101 | 6 | 360 | 0.0 | 9.7 | 0.00 | 0.03 | 0.00 | 62 | 1010.3 |
| 20260506121604 | 6 | 360 | 3.2 | 9.7 | 0.00 | 0.03 | 0.00 | 62 | 1010.1 |
| 20260506120112 | 5 | 360 | 0.0 | 0.0 | 0.00 | 0.03 | 0.00 | 67 | 1009.7 |
| 20260506114519 | 5 | 360 | 0.0 | 0.0 | 0.00 | 0.03 | 0.00 | 70 | 1009.5 |
| 20260506113027 | 5 | 360 | 0.0 | 0.0 | 0.00 | 0.03 | 0.00 | 70 | 1009.4 |
| 20260506111517 | 5 | 360 | 0.0 | 0.0 | 0.00 | 0.03 | 0.00 | 71 | 1009.3 |
| 20260506110013 | 5 | 360 | 0.0 | 0.0 | 0.00 | 0.03 | 0.00 | 71 | 1009.0 |
| 20260506104509 | 5 | 360 | 0.0 | 0.0 | 0.00 | 0.03 | 0.00 | 70 | 1008.9 |
| 20260506103010 | 5 | 360 | 0.0 | 0.0 | 0.00 | 0.03 | 0.00 | 68 | 1008.6 |
| 20260506101503 | 6 | 360 | 0.0 | 0.0 | 0.00 | 0.03 | 0.00 | 66 | 1008.4 |
| 20260506100002 | 6 | 360 | 0.0 | 0.0 | 0.00 | 0.03 | 0.00 | 67 | 1008.5 |